Location: Ferintosh
(52.7647°N, 112.9692°W)
Time: 22:51:53
(UTC+00:00)

A-11 Canister half - Pass Details

Date: 27 May 2024
Orbit: 1524 x 1683 km, 47.3° (Epoch: 19 June)

Event Time Altitude Azimuth Distance (km) Brightness Sun altitude
Rises 03:10:18 0° 215° (SW) 4,667 11.6 2.8°
Reaches altitude 10° 03:13:37 10° 207° (SSW) 3,694 11.0 2.4°
Maximum altitude 03:21:47 36° 145° (SE) 2,271 9.5 1.4°
Drops below altitude 10° 03:30:09 10° 83° (E) 3,788 10.6 0.3°
Sets 03:33:35 0° 76° (ENE) 4,799 11.2 -0.1°
